Sioux City, IA

10:05 PM CDT on March 24, 2017 (GMT -0500)
Sioux Gateway

Weather History for KSUX - October, 2011

Change the Weather History Date:

Tuesday, October 18, 2011

  Actual Average Record
Temperature  
Mean Temperature 44 °F 50 °F  
Max Temperature 54 °F 63 °F 87 °F (1950)
Min Temperature 33 °F 37 °F 20 °F (1972)
Degree Days  
Heating Degree Days 21 15  
Month to date heating degree days 117 218  
Since 1 July heating degree days 301 365  
Cooling Degree Days 0 0  
Month to date cooling degree days 32 8  
Year to date cooling degree days 1093 869  
Moisture  
Dew Point 26 °F    
Average Humidity 52    
Maximum Humidity 79    
Minimum Humidity 30    
Precipitation  
Precipitation 0.00 in 0.07 in 1.02 in (1897)
Month to date precipitation 0.18 1.44  
Year to date precipitation 23.25 24.94  
Snow  
Snow 0.00 in 0.00 in 1.60 in (1898)
Month to date snowfall 0.0 0.3  
Since 1 July snowfall 0.0 0.3  
Since 1 September snowfall 0.0 0.3  
Snow Depth 0.00 in    
Sea Level Pressure  
Sea Level Pressure 30.09 in    
Wind  
Wind Speed 15 mph (NNW)    
Max Wind Speed 29 mph    
Max Gust Speed 36 mph    
Visibility 10 miles    
Events      
T = Trace of Precipitation, MM = Missing Value Source: NWS Daily Summary

Daily Weather History Graph

Daily Weather History Graph

Search for Another Location

Airport or City:

Trip Planner

Search our weather history database for the weather conditions in past years. The results will help you decide how hot, cold, wet, or windy it might be!

Date:

Astronomy

Oct. 18, 2011 Rise Set
Actual Time 7:41 AM CDT 6:39 PM CDT
Civil Twilight 7:13 AM CDT 7:07 PM CDT
Nautical Twilight 6:40 AM CDT 7:40 PM CDT
Astronomical Twilight 6:07 AM CDT 8:12 PM CDT
Moon 11:17 PM CDT (10/18) 1:37 PM CDT (10/18)
Length of Visible Light 11h 54m
Length of Day
10h 57m
Waning Gibbous, 64% of the Moon is Illuminated
Oct 18
Waning Gibbous
Oct 19
Last Quarter
Oct 26
New
Nov 2
First Quarter
Nov 10
Full

Hourly Weather History & Observations

Time (CDT) Temp. Windchill Dew Point Humidity Pressure Visibility Wind Dir Wind Speed Gust Speed Precip Events Conditions
12:52 AM 46.0 °F 43.1 °F 30.9 °F 56% 30.01 in 10.0 mi NW 5.8 mph - N/A   Clear
1:52 AM 43.0 °F 38.8 °F 28.9 °F 58% 30.01 in 10.0 mi NNW 6.9 mph - N/A   Clear
2:52 AM 41.0 °F 35.8 °F 28.0 °F 60% 30.02 in 10.0 mi NNW 8.1 mph - N/A   Clear
3:52 AM 39.9 °F 33.9 °F 28.0 °F 63% 30.03 in 10.0 mi NNW 9.2 mph - N/A   Clear
4:52 AM 36.0 °F 30.3 °F 27.0 °F 70% 30.05 in 10.0 mi NNW 6.9 mph - N/A   Clear
5:52 AM 37.0 °F 31.0 °F 28.0 °F 70% 30.06 in 10.0 mi NNW 8.1 mph - N/A   Clear
6:52 AM 35.1 °F 25.9 °F 27.0 °F 72% 30.09 in 10.0 mi NNW 13.8 mph - N/A   Clear
7:52 AM 34.0 °F 25.5 °F 28.0 °F 79% 30.11 in 10.0 mi NNW 11.5 mph - N/A   Clear
8:52 AM 37.0 °F 28.9 °F 28.9 °F 73% 30.13 in 10.0 mi NNW 12.7 mph - N/A   Clear
9:52 AM 39.9 °F 31.8 °F 30.0 °F 68% 30.13 in 10.0 mi NNW 15.0 mph - N/A   Overcast
10:52 AM 45.0 °F 36.2 °F 30.9 °F 58% 30.13 in 10.0 mi NW 24.2 mph 28.8 mph N/A   Partly Cloudy
11:52 AM 48.0 °F - 30.9 °F 52% 30.12 in 10.0 mi NNW 23.0 mph - N/A   Scattered Clouds
12:52 PM 50.0 °F - 30.9 °F 48% 30.11 in 10.0 mi North 20.7 mph 28.8 mph N/A   Partly Cloudy
1:52 PM 52.0 °F - 27.0 °F 38% 30.09 in 10.0 mi NNW 19.6 mph 28.8 mph N/A   Clear
2:52 PM 54.0 °F - 25.0 °F 33% 30.08 in 10.0 mi North 23.0 mph - N/A   Clear
3:52 PM 53.1 °F - 21.9 °F 30% 30.08 in 10.0 mi NNW 24.2 mph 32.2 mph N/A   Clear
4:52 PM 53.1 °F - 23.0 °F 31% 30.08 in 10.0 mi NNW 24.2 mph 27.6 mph N/A   Clear
5:52 PM 51.1 °F - 23.0 °F 33% 30.09 in 10.0 mi NNW 23.0 mph - N/A   Clear
6:52 PM 48.9 °F - 23.0 °F 36% 30.11 in 10.0 mi North 16.1 mph - N/A   Clear
7:52 PM 46.0 °F 40.2 °F 23.0 °F 40% 30.12 in 10.0 mi NNW 12.7 mph - N/A   Clear
8:52 PM 43.0 °F 37.2 °F 23.0 °F 45% 30.13 in 10.0 mi North 10.4 mph - N/A   Clear
9:52 PM 41.0 °F 35.2 °F 21.9 °F 47% 30.13 in 10.0 mi North 9.2 mph - N/A   Clear
10:52 PM 41.0 °F 34.3 °F 21.2 °F 45% 30.11 in 10.0 mi North 11.5 mph - N/A   Clear
11:52 PM 39.0 °F 32.8 °F 21.9 °F 50% 30.13 in 10.0 mi North 9.2 mph - N/A   Clear